EW5742 Weather Reports


Display with metric or nautical units.
time (UTC)temp
F
wind
direction
speed
MPH
gust
MPH
rain 1hr
in
rain 24hr
in
rain mn
in
humidity
%
barometer
mb
20260502210031 56 329 2.0 6.0 0.05 0.42 0.42 92 1009.2
20260502204535 56 8 2.0 6.0 0.03 0.40 0.40 92 1009.1
20260502203053 56 359 3.0 8.0 0.05 0.38 0.38 92 1009.4
20260502201550 56 283 1.0 7.0 0.08 0.38 0.38 92 1009.3
20260502200112 57 349 0.0 6.0 0.08 0.37 0.37 92 1009.2
20260502194605 57 13 2.0 5.0 0.10 0.37 0.37 92 1009.3
20260502193058 57 324 0.0 5.0 0.08 0.33 0.33 92 1009.9
20260502191610 57 320 0.0 5.0 0.07 0.30 0.30 92 1010.1
20260502190033 57 307 0.0 5.0 0.07 0.28 0.28 92 1010.2
20260502184532 57 297 2.0 6.0 0.05 0.27 0.27 91 1010.4
20260502183017 57 350 1.0 5.0 0.05 0.25 0.25 91 1010.0
20260502181519 57 335 1.0 5.0 0.04 0.23 0.23 91 1009.8
20260502170126 57 336 0.0 5.0 0.09 0.17 0.17 92 1011.5
20260502163103 57 18 0.0 8.0 0.07 0.12 0.12 91 1011.5
20260502161528 57 88 1.0 3.0 0.06 0.10 0.10 91 1011.4
20260502151534 58 302 2.0 7.0 0.00 0.04 0.04 86 1011.3
20260502123015 57 307 1.0 7.0 0.00 0.04 0.04 93 1011.3
20260502121503 57 309 1.0 7.0 0.01 0.04 0.04 93 1011.2
20260502120114 57 315 1.0 5.0 0.01 0.04 0.04 93 1011.2
20260502114513 57 300 1.0 6.0 0.02 0.04 0.04 93 1011.0
20260502113012 57 347 1.0 4.0 0.02 0.04 0.04 93 1010.7
20260502110049 56 346 1.0 5.0 0.02 0.03 0.03 93 1010.6
20260502104609 57 335 0.0 2.0 0.02 0.02 0.02 93 1010.4
20260502103108 57 326 0.0 3.0 0.02 0.02 0.02 93 1010.5
20260502101610 57 340 0.0 3.0 0.01 0.01 0.01 93 1010.4
20260502091514 57 309 0.0 2.0 0.00 0.00 0.00 92 1010.2
20260502090110 56 311 0.0 0.0 0.00 0.00 0.00 92 1010.1
20260502070105 56 338 0.0 1.0 0.00 0.01 0.00 89 1010.6
20260502070003 56 338 0.0 1.0 0.00 0.01 0.00 89 1010.7
20260502064556 56 7 0.0 0.0 0.00 0.01 0.00 89 1010.7
20260502063106 56 7 0.0 0.0 0.00 0.01 0.00 88 1010.8
20260502061550 56 7 0.0 0.0 0.00 0.01 0.00 88 1010.8
20260502060112 56 7 0.0 1.0 0.00 0.01 0.00 88 1010.7
20260502054511 56 7 0.0 1.0 0.00 0.01 0.00 88 1011.1
20260502053006 55 7 0.0 1.0 0.00 0.01 0.00 88 1011.3
20260502051603 55 7 0.0 1.0 0.00 0.01 0.00 87 1011.4
20260502050101 55 7 0.0 0.0 0.00 0.01 0.00 87 1011.6
20260502044557 55 7 0.0 0.0 0.00 0.01 0.00 86 1011.6
20260502043104 55 338 0.0 0.0 0.00 0.01 0.00 86 1011.8
20260502041554 55 338 0.0 0.0 0.00 0.01 0.00 85 1012.0
20260502040053 56 338 0.0 0.0 0.00 0.01 0.01 84 1012.0
20260502034600 56 338 0.0 1.0 0.00 0.01 0.01 84 1012.3
20260502033001 55 359 0.0 1.0 0.00 0.01 0.01 84 1012.2
20260502031558 55 325 0.0 3.0 0.00 0.01 0.01 85 1012.5
20260502030106 55 6 0.0 1.0 0.00 0.01 0.01 85 1012.7
20260502024551 55 7 0.0 0.0 0.00 0.01 0.01 84 1012.8
20260502023056 55 7 0.0 0.0 0.00 0.01 0.01 83 1012.5
20260502021540 55 7 0.0 1.0 0.00 0.01 0.01 83 1012.7
20260502020147 55 344 0.0 1.0 0.00 0.01 0.01 83 1012.7
20260502014515 55 344 0.0 1.0 0.00 0.01 0.01 82 1012.8
20260502013010 56 302 0.0 1.0 0.00 0.01 0.01 81 1012.7
20260502011538 56 302 0.0 1.0 0.00 0.01 0.01 80 1013.0
20260502010042 57 302 0.0 0.0 0.00 0.01 0.01 78 1012.7
20260502004533 57 302 0.0 1.0 0.00 0.01 0.01 77 1012.5
20260502003034 58 302 0.0 2.0 0.00 0.01 0.01 75 1012.4
20260502001632 58 96 0.0 2.0 0.00 0.01 0.01 74 1012.5
20260502000012 58 45 1.0 3.0 0.00 0.01 0.01 73 1012.4
20260501234516 59 44 0.0 2.0 0.00 0.01 0.01 72 1012.5
20260501233054 59 86 0.0 2.0 0.00 0.01 0.01 71 1012.7
20260501231546 60 39 0.0 4.0 0.00 0.01 0.01 70 1012.8
20260501230048 60 58 0.0 4.0 0.00 0.01 0.01 69 1012.8
20260501224556 60 13 0.0 6.0 0.00 0.01 0.01 67 1012.9
20260501223021 61 39 0.0 3.0 0.00 0.01 0.01 67 1013.2
20260501221506 60 77 2.0 6.0 0.00 0.01 0.01 66 1013.0
20260501220046 61 10 3.0 9.0 0.00 0.01 0.01 66 1013.1
20260501214544 61 63 2.0 9.0 0.00 0.01 0.01 63 1013.2
20260501213058 62 111 1.0 8.0 0.00 0.01 0.01 62 1013.3
20260501211556 63 79 0.0 6.0 0.00 0.01 0.01 60 1013.3